This is the latest recevied weather packets stored in our database for station/object KA1AL. If no packets are shown the sender has not sent any weather packets the latest 10 day(s).
| Time | Temp. | Humidity | Pressure | Rain* | Wind** | Luminosity | Snow |
|---|---|---|---|---|---|---|---|
| 1778135919 | 5.56° C | 99% | 1003.8 hPa | 0 mm | - | 0 W/m² | - |
| 1778135616 | 5.56° C | 99% | 1004 hPa | 0 mm | - | 0 W/m² | - |
| 1778135312 | 5.56° C | 99% | 1003.5 hPa | 0 mm | - | 0 W/m² | - |
| 1778135009 | 5.56° C | 99% | 1003.8 hPa | 0 mm | - | 0 W/m² | - |
| 1778134708 | 5.56° C | 99% | 1003.5 hPa | 0 mm | - | 0 W/m² | - |
| 1778134405 | 6.11° C | 99% | 1003.3 hPa | 0 mm | - | 0 W/m² | - |
| 1778134104 | 6.11° C | 99% | 1003.6 hPa | 0 mm | - | 0 W/m² | - |
| 1778133800 | 6.11° C | 99% | 1003.7 hPa | 0 mm | - | 0 W/m² | - |
| 1778133497 | 6.11° C | 99% | 1003.8 hPa | 0 mm | - | 0 W/m² | - |
| 1778133191 | 6.11° C | 99% | 1003.9 hPa | 0 mm | - | 0 W/m² | - |
| 1778132888 | 6.11° C | 99% | 1003.7 hPa | 0 mm | - | 0 W/m² | - |
| 1778132585 | 6.11° C | 99% | 1003.4 hPa | 0 mm | - | 0 W/m² | - |
| 1778132282 | 6.11° C | 99% | 1003 hPa | 1.27 mm | - | 0 W/m² | - |
| 1778131980 | 6.11° C | 99% | 1003.8 hPa | 1.27 mm | - | 0 W/m² | - |
| 1778131679 | 6.11° C | 99% | 1003.7 hPa | 0 mm | - | 0 W/m² | - |
| 1778131374 | 6.11° C | 99% | 1003.9 hPa | 0 mm | - | 0 W/m² | - |
| 1778131073 | 6.67° C | 99% | 1003.9 hPa | 0 mm | - | 0 W/m² | - |
| 1778130769 | 6.67° C | 99% | 1003.6 hPa | 0 mm | - | 0 W/m² | - |
| 1778130466 | 6.67° C | 99% | 1003.6 hPa | 0 mm | - | 0 W/m² | - |
| 1778130163 | 6.67° C | 99% | 1003.5 hPa | 0 mm | - | 0 W/m² | - |
| 1778129860 | 6.67° C | 99% | 1003.5 hPa | 0 mm | - | 0 W/m² | - |
| 1778129556 | 6.67° C | 99% | 1003.5 hPa | 1.78 mm | - | 0 W/m² | - |
| 1778129253 | 6.67° C | 99% | 1003.3 hPa | 3.05 mm | - | 0 W/m² | - |
| 1778128949 | 6.67° C | 99% | 1003.7 hPa | 3.05 mm | - | 0 W/m² | - |
| 1778128646 | 6.67° C | 99% | 1003.8 hPa | 4.83 mm | - | 0 W/m² | - |
* Rain latest hour (hover to see other rain measurements)
** Current wind speed in m/s (hover to see current wind gust speed)